Погода в Чиршкасах

Россия / Чувашская Республика     56°00′07″N   47°19′01″E
темп.,
°C
ветер,
м/с
пор.,
м/с
влажн.,
%
обл.,
%
осадки,
мм/ч
давл.,
гПа
погр.,
м
15 апреля, чт
чт1500:00+10ю36873 0.0 102290
03:00+9ю33870 0.0 102125
06:00+9ю33873 0.0 102051
09:00+14ю357218 0.0 1020343
12:00+18ююз335897 0.1 10191147
15:00+18юз224998 0.3 10181574
18:00+16сз115959 0.0 101811
21:00+13ссв377699 0.1 1019151
16 апреля, пт
пт1600:00+9ссв6991100 0.0 1020345
03:00+8св61090100 0.0 1021426
06:00+7св61090100 0.0 1022468
09:00+7св6987100 0.0 1024517
12:00+10всв6775100 0.0 1024801
15:00+12всв576799 0.0 10241031
18:00+9всв597043 0.0 1025552
21:00+6св411785 0.0 1025228
17 апреля, сб
сб1700:00+5св411725 0.0 1026261
03:00+3св4117518 0.0 1026253
06:00+3св511738 0.0 1027293
09:00+8всв68480 0.0 1027630
12:00+11всв67350 0.0 10271195
15:00+12св66340 0.0 10261480
18:00+9св48490 0.0 1026248
21:00+5св37640 0.0 1026123
18 апреля, вс
вс1800:00+4ссв36750 0.0 102796
03:00+2ссв36800 0.0 102798
06:00+3с38790 0.0 1027185
09:00+8ссв57550 0.0 1027771
12:00+11ссв674513 0.0 10261714
15:00+10ссв8852100 0.0 10271519
18:00+6св69605 0.0 10301302
21:00+3св511525 0.0 1032377
19 апреля, пн
пн1900:00+1св411595 0.0 1033274
03:00−1всв39664 0.0 1035218
06:000всв48594 0.0 1038292
09:00+4всв56360 0.0 10381346
12:00+6в45333 0.0 10381629
15:00+7вюв44333 0.0 10371684
18:00+5вюв34460 0.0 1037110
21:00+2вюв33530 0.0 103837